Location: Lake Crest
(37.6062°N, 88.9176°W)
Time: 03:24:42
(UTC+00:00)

Cosmos 1515 - Pass Details

Date: 15 December 2019
Orbit: 507 x 516 km, 82.5° (Epoch: 25 January)

Event Time Altitude Azimuth Distance (km) Brightness Sun altitude
Exits shadow 11:24:35 21° 353° (N) 1,197 5.3 -18.9°
Maximum altitude 11:27:03 89° 274° (W) 520 3.6 -18.4°
Drops below altitude 10° 11:30:52 10° 174° (S) 1,735 6.6 -17.7°
Sets 11:32:59 0° 175° (S) 2,617 7.6 -17.3°
